AirNav   TITAN Aviation Fuels
 
 733 users online  

PA40 Benton Airport
Benton, Pennsylvania, USA

GOING TO BENTON?


FAA INFORMATION EFFECTIVE 09 SEPTEMBER 2021

Location

FAA Identifier: PA40
Lat/Long: 41-12-00.3010N 076-23-13.7900W
41-12.005017N 076-23.229833W
41.2000836,-76.3871639
(estimated)
Elevation: 780 ft. / 238 m (estimated)
Variation: 11W (1985)
From city: 4 miles W of BENTON, PA
Time zone: UTC -4 (UTC -5 during Standard Time)
Zip code: 17814

Airport Operations

Airport use: Private use. Permission required prior to landing
Activation date: 04/1947
Control tower: no
ARTCC: NEW YORK CENTER
FSS: WILLIAMSPORT FLIGHT SERVICE STATION
Attendance: UNATNDD
Wind indicator: yes
Segmented circle: no

Airport Communications

WX AWOS-3 at 79PN (17 nm SW): 118.075 (570-271-8192)

Nearby radio navigation aids

VOR radial/distance  VOR name  Freq  Var
MIPr059/16.4MILTON VORTAC109.2009W
FQMr124/19.4WILLIAMSPORT VOR/DME114.4009W
LVZr272/31.8WILKES-BARRE VORTAC111.6010W
SEGr051/33.3SELINSGROVE VOR/DME110.4008W
RAVr025/40.0RAVINE VORTAC114.6011W

Airport Services

Airframe service: NONE
Powerplant service: NONE

Runway Information

Runway 3/21

Dimensions: 2200 x 150 ft. / 671 x 46 m
Surface: turf
RUNWAY 3  RUNWAY 21
Traffic pattern: leftleft
Obstructions: 35 ft. trees, 26 ft. from runway16 ft. road, 77 ft. from runway

Airport Ownership and Management from official FAA records

Ownership: Publicly-owned
Owner: BENTON AIRPORT ASSOCIATION, LLC
314 MENDENHALL LANE
BENTON, PA 17814
Phone 570-204-1977
ROBERT BREWINGTON, PRESIDENT
Manager: BOB BREWINGTON
314 MENDENHALL LANE, APT B
BENTON, PA 17814
Phone 570-204-1977

Airport Operational Statistics

Aircraft based on the field: 8
Single engine airplanes: 8
    

Additional Remarks

FOR CD CTC NEW YORK ARTCC AT 631-468-1425.

Instrument Procedures

There are no published instrument procedures at PA40.

Some nearby airports with instrument procedures:

N13 - Bloomsburg Municipal Airport (12 nm S)
8N8 - Danville Airport (19 nm SW)
KHZL - Hazleton Regional Airport (22 nm SE)
N79 - Northumberland County Airport (23 nm S)
KIPT - Williamsport Regional Airport (24 nm W)
 
Loc | Ops | Rwys | IFR | FBO | Links
Com | Nav | Svcs | Stats | Notes
Area around PA40 (Benton Airport)
 
Road maps at: MapQuest Bing Google
 
Aerial photo
WARNING: Photo may not be current or correct
Aerial photo of PA40 (Benton Airport)
Photo taken 10-Apr-2005

Do you have a better or more recent aerial photo of Benton Airport that you would like to share? If so, please send us your photo.

 
Sectional chart

 
Airport distance calculator
Flying to Benton Airport? Find the distance to fly.

From to PA40

Sunrise and sunset
Times for 21-Sep-2021
 Local
(UTC-4)
 Zulu
(UTC)
Morning civil twilight06:2510:25
Sunrise06:5310:53
Sunset19:0423:04
Evening civil twilight19:3223:32

Current date and time
Zulu (UTC)  21-Sep-2021 11:40:32
Local (UTC-4)  21-Sep-2021 07:40:32
 
METAR
KHZL 
22nm SE 
211115Z AUTO 00000KT 10SM OVC027 14/12 A3038 RMK AO2
KIPT 
24nm W 
211054Z 00000KT 10SM OVC020 16/13 A3031 RMK AO2 SLP262 T01610128
KAVP 
31nm E 
211116Z 11003KT 10SM BKN029 13/12 A3035 RMK AO2 T01280117
KSEG 
32nm SW 
211053Z AUTO 00000KT 10SM OVC044 14/14 A3032 RMK AO2 SLP267 T01390139
K22N 
37nm SE 
211115Z AUTO 00000KT 10SM OVC029 15/15 A3036 RMK AO2
TAF
KIPT 
24nm W 
210913Z 2109/2206 09007KT P6SM OVC020 FM211000 10006KT P6SM SCT004 OVC020 FM211200 09004KT P6SM BKN005 OVC020 FM211700 15009G15KT P6SM SCT030 OVC250
NOTAMs
Click for the latest NOTAMs
NOTAMs are issued by the DoD/FAA and will open in a separate window not controlled by AirNav.

 

 
 

Would you like to see your business listed on this page?

 If your business provides an interesting product or service to pilots, flight crews, aircraft, or users of the Benton Airport, you should consider listing it here.  To start the listing process, click on the button below
 
Add a business
 

Other Pages about Benton Airport

Update a link
 
Copyright © AirNav, LLC. All rights reserved. Privacy Policy  Contact